KE9LZ Weather Reports


time (UTC)temp
C
wind
direction
speed
KPH
gust
KPH
rain 1hr
cm
rain 24hr
cm
rain mn
cm
humidity
%
barometer
mb
20240723063003 20 40 1.6 4.8 8.79 8.79 8.79 97 1014.4
20240723062002 20 117 3.2 4.8 5.87 5.87 5.87 96 1014.2
20240723061003 20 70 3.2 4.8 3.05 3.05 3.05 95 1014.4
20240723055003 21 88 3.2 4.8 0.76 0.76 0.76 90 1014.7
20240723054003 21 281 1.6 8.0 0.00 0.00 0.00 86 1015.0
20240723053003 21 299 4.8 9.7 0.00 0.00 0.00 85 1014.8
20240723052003 21 4 3.2 11.3 0.00 0.00 0.00 83 1014.9
20240723051003 22 9 3.2 14.5 0.00 0.00 0.00 80 1014.8
20240723050003 22 270 4.8 8.0 0.00 0.00 0.00 67 1015.0
20240723044003 22 299 4.8 11.3 0.00 0.00 0.00 70 1014.8
20240723043003 22 295 8.0 12.9 0.00 0.00 0.00 67 1014.7
20240723042003 22 143 3.2 4.8 0.00 0.00 0.00 67 1014.2
20240723041004 22 353 4.8 4.8 0.00 0.00 0.00 66 1014.1
20240723040003 22 325 1.6 3.2 0.00 0.00 0.00 66 1014.3
20240723035003 22 86 1.6 4.8 0.00 0.00 0.00 65 1014.2
20240723034002 22 134 3.2 9.7 0.00 0.00 0.00 64 1014.1
20240723032003 22 140 3.2 11.3 0.00 0.00 0.00 63 1014.3
20240723031003 22 151 3.2 8.0 0.00 0.00 0.00 64 1014.3
20240723030003 22 154 3.2 8.0 0.00 0.00 0.00 63 1014.3
20240723025002 22 149 3.2 8.0 0.00 0.00 0.00 63 1014.3
20240723024003 23 137 3.2 8.0 0.00 0.00 0.00 63 1014.5
20240723023003 23 144 3.2 16.1 0.00 0.00 0.00 62 1014.3
20240723022003 23 118 4.8 16.1 0.00 0.00 0.00 62 1014.4
20240723020003 23 159 3.2 9.7 0.00 0.00 0.00 63 1014.3
20240723015003 23 163 4.8 9.7 0.00 0.00 0.00 62 1014.0
20240723014003 23 143 3.2 9.7 0.00 0.00 0.00 61 1014.0
20240723013003 23 119 3.2 9.7 0.00 0.00 0.00 61 1014.1
20240723012002 23 133 3.2 11.3 0.00 0.00 0.00 60 1014.2
20240723011003 23 139 3.2 8.0 0.00 0.00 0.00 59 1013.8
20240723010003 24 132 3.2 8.0 0.00 0.00 0.00 58 1014.3
20240723005003 24 126 3.2 4.8 0.00 0.00 0.00 57 1014.2
20240723004003 24 130 4.8 9.7 0.00 0.00 0.00 56 1014.1
20240723003003 25 118 1.6 9.7 0.00 0.00 0.00 56 1014.4
20240723002003 25 149 4.8 9.7 0.00 0.00 0.00 55 1014.0
20240723001003 25 141 4.8 12.9 0.00 0.00 0.00 53 1014.3
20240723000003 26 161 9.7 19.3 0.00 0.00 0.00 52 1014.0
20240722235003 26 133 4.8 14.5 0.00 0.00 0.00 52 1014.0
20240722234003 27 170 3.2 12.9 0.00 0.00 0.00 51 1013.8
20240722233003 27 185 4.8 19.3 0.00 0.00 0.00 50 1014.0
20240722232003 27 208 8.0 14.5 0.00 0.00 0.00 48 1014.0
20240722231003 27 183 4.8 19.3 0.00 0.00 0.00 49 1013.8
20240722230004 28 205 9.7 19.3 0.00 0.00 0.00 47 1014.1
20240722225004 28 207 8.0 16.1 0.00 0.00 0.00 47 1013.8
20240722224003 27 190 4.8 16.1 0.00 0.00 0.00 48 1013.9
20240722222003 27 227 9.7 19.3 0.00 0.00 0.00 46 1013.8
20240722221003 28 235 8.0 16.1 0.00 0.00 0.00 46 1014.2
20240722215003 28 162 1.6 11.3 0.00 0.00 0.00 46 1013.8
20240722213003 28 146 4.8 14.5 0.00 0.00 0.00 45 1014.1
20240722212003 28 220 8.0 16.1 0.00 0.00 0.00 46 1014.1
20240722211003 28 185 4.8 16.1 0.00 0.00 0.00 44 1014.4
20240722205003 28 127 4.8 9.7 0.00 0.00 0.00 45 1014.6
20240722204003 27 201 1.6 16.1 0.00 0.00 0.00 46 1014.9
20240722202003 28 235 4.8 20.9 0.00 0.00 0.00 44 1014.9
20240722201004 28 153 4.8 9.7 0.00 0.00 0.00 41 1015.1
20240722200004 29 282 6.4 16.1 0.00 0.00 0.00 40 1015.2
20240722195003 28 260 4.8 14.5 0.00 0.00 0.00 42 1015.4
20240722193003 28 190 6.4 14.5 0.00 0.00 0.00 43 1015.7
20240722192003 28 291 6.4 19.3 0.00 0.00 0.00 43 1015.6
20240722191003 27 194 9.7 16.1 0.00 0.00 0.00 44 1015.8
20240722185003 27 251 6.4 16.1 0.00 0.00 0.00 44 1015.9
20240722184003 27 303 6.4 16.1 0.00 0.00 0.00 45 1016.1
20240722183003 28 195 8.0 14.5 0.00 0.00 0.00 43 1016.3
20240722181003 27 229 8.0 16.1 0.00 0.00 0.00 43 1016.2
20240722180003 27 239 3.2 11.3 0.00 0.00 0.00 42 1016.2
20240722175003 27 188 4.8 9.7 0.00 0.00 0.00 43 1016.6
20240722174004 26 42 3.2 11.3 0.00 0.00 0.00 44 1016.9
20240722173003 27 272 4.8 14.5 0.00 0.00 0.00 43 1016.6
20240722172003 26 219 3.2 11.3 0.00 0.00 0.00 46 1017.0
20240722171003 26 211 8.0 16.1 0.00 0.00 0.00 46 1016.7
20240722170003 26 154 1.6 12.9 0.00 0.00 0.00 47 1017.0
20240722165002 26 63 1.6 11.3 0.00 0.00 0.00 49 1017.3
20240722164004 26 341 4.8 19.3 0.00 0.00 0.00 47 1017.2
20240722163003 25 220 4.8 12.9 0.00 0.00 0.00 48 1017.3
20240722161004 26 178 3.2 9.7 0.00 0.00 0.00 48 1017.3
20240722160004 25 204 3.2 8.0 0.00 0.00 0.00 47 1017.4
20240722155003 25 281 4.8 12.9 0.00 0.00 0.00 47 1017.5
20240722154004 25 302 4.8 4.8 0.00 0.00 0.00 48 1017.6
20240722153004 25 171 3.2 9.7 0.00 0.00 0.00 48 1017.5
20240722152003 24 186 3.2 8.0 0.00 0.00 0.00 50 1017.6
20240722151004 23 18 1.6 8.0 0.00 0.00 0.00 51 1017.5
20240722150003 23 197 3.2 9.7 0.00 0.00 0.00 52 1017.9
20240722145003 23 93 1.6 9.7 0.00 0.00 0.00 53 1017.7
20240722144003 23 330 3.2 8.0 0.00 0.00 0.00 54 1018.1
20240722142003 22 277 1.6 9.7 0.00 0.00 0.00 57 1018.0
20240722141003 22 238 3.2 4.8 0.00 0.00 0.00 57 1017.9
20240722140004 22 246 1.6 4.8 0.00 0.00 0.00 59 1018.1
20240722135003 20 311 3.2 8.0 0.00 0.00 0.00 66 1018.3
20240722134003 20 286 3.2 8.0 0.00 0.00 0.00 69 1017.9
20240722133003 20 69 0.0 8.0 0.00 0.00 0.00 72 1018.3
20240722132004 19 188 3.2 4.8 0.00 0.00 0.00 77 1018.2
20240722131003 19 189 1.6 4.8 0.00 0.00 0.00 78 1018.2
20240722125003 18 166 1.6 4.8 0.00 0.00 0.00 85 1018.3
20240722123004 17 133 1.6 3.2 0.00 0.00 0.00 86 1018.3
20240722122004 16 138 1.6 3.2 0.00 0.00 0.00 87 1018.2
20240722121003 15 114 1.6 3.2 0.00 0.00 0.00 90 1018.1
20240722114003 13 45 1.6 1.6 0.00 0.00 0.00 96 1018.3
20240722113003 12 99 1.6 3.2 0.00 0.00 0.00 95 1018.3
20240722112003 12 104 1.6 3.2 0.00 0.00 0.00 96 1018.3
20240722111004 12 94 1.6 3.2 0.00 0.00 0.00 96 1018.4
20240722110003 12 93 1.6 3.2 0.00 0.00 0.00 95 1018.4
20240722105003 12 99 3.2 3.2 0.00 0.00 0.00 95 1018.3
20240722104003 12 111 1.6 3.2 0.00 0.00 0.00 95 1018.3
20240722103003 12 106 1.6 3.2 0.00 0.00 0.00 95 1018.2
20240722102003 12 101 3.2 3.2 0.00 0.00 0.00 95 1018.4
20240722101003 12 105 1.6 3.2 0.00 0.00 0.00 96 1018.2
20240722100003 12 103 1.6 3.2 0.00 0.00 0.00 96 1018.2
20240722094003 12 104 3.2 3.2 0.00 0.00 0.00 97 1018.2
20240722092003 12 100 1.6 3.2 0.00 0.00 0.00 97 1018.3
20240722091004 12 99 1.6 3.2 0.00 0.00 0.00 96 1018.2
20240722090003 12 85 1.6 3.2 0.00 0.00 0.00 96 1018.4
20240722084004 12 109 0.0 1.6 0.00 0.00 0.00 96 1018.3
20240722083003 12 77 0.0 1.6 0.00 0.00 0.00 96 1018.5
20240722082003 13 316 0.0 3.2 0.00 0.00 0.00 95 1018.4
20240722081003 12 110 1.6 3.2 0.00 0.00 0.00 95 1018.3
20240722080003 13 104 3.2 3.2 0.00 0.00 0.00 94 1018.2
20240722075004 13 119 1.6 3.2 0.00 0.00 0.00 94 1018.3
20240722074003 13 83 1.6 4.8 0.00 0.00 0.00 93 1018.4
20240722073003 13 134 4.8 4.8 0.00 0.00 0.00 93 1018.6
20240722072004 13 103 3.2 3.2 0.00 0.00 0.00 92 1018.6
20240722071003 13 108 3.2 3.2 0.00 0.00 0.00 92 1018.6
20240722070004 14 81 1.6 3.2 0.00 0.00 0.00 91 1018.5
20240722064003 14 93 1.6 3.2 0.00 0.00 0.00 91 1019.1